Starlink 31447

operational
NORAD ID: 59302 Int'l Des: 2024-056 Owner: SPXS Country: US Constellation: starlink
LEOCIRCULAR

About Starlink 31447

Description loading...

Live Position

Loading 3D Globe...

Upcoming Passes

Altitude History

Altitude vs Time

uPlot chart will show altitude changes over time

Two-Line Element Set

1 59302U 24056G 25305.52856193 -.00003077 00000-0 -10241-3 0 9990
2 59302 43.0027 234.5102 0001299 261.5303 98.5402 15.27553421 91558
Epoch: Nov 1, 2025 • Age: 15 hours

Current Status

Altitude 495.5 km
Velocity 7.62 km/s
Sub-Earth Point -42.95°S, 32.77°E
Launch Date Mar 24, 2024
Age 1.6 years
Type internet

Technical Details

Classification Payload
Mass 730.00 kg
Dry Mass 700.00 kg
Total Mass 730.00 kg
Length 0.30 m
Diameter 4.10 m
Span 29.00 m
Shape Box + pan
Manufacturer SPXS
Bus Type Starlink V2M
Phase Status In Orbit
Owner/State SPXS/US

Large Constellations

Loading constellations...